• In Uzbekistan
  • List of Countries
  • For 7 days
  • Water Temperature
  • Satellite Maps
  • Weather Map
  • Weather Widgets
  • user-avatar
    Login

    Hourly Weather Buritama

    Today, 19 October, Thursday

    Time Temperature Precipitation Wind Pressure Humidity
    00:00 +31°C° 0 mm 3 mps 725 mmHg 36%
    01:00 +30°C° 0 mm 3 mps 724 mmHg 37%
    02:00 +29°C° 0 mm 3 mps 724 mmHg 37%
    03:00 +29°C° 0 mm 4 mps 724 mmHg 37%
    04:00 +28°C° 0 mm 4 mps 724 mmHg 38%
    05:00 +28°C° 0 mm 4 mps 724 mmHg 38%
    06:00 +27°C° 0 mm 4 mps 724 mmHg 39%
    07:00 +29°C° 0 mm 5 mps 725 mmHg 34%
    08:00 +32°C° 0 mm 6 mps 726 mmHg 30%
    09:00 +34°C° 0 mm 7 mps 726 mmHg 25%
    10:00 +36°C° 0 mm 6 mps 726 mmHg 23%
    11:00 +39°C° 0 mm 6 mps 726 mmHg 21%
    12:00 +40°C° 0 mm 5 mps 726 mmHg 19%
    13:00 +40°C° 0 mm 4 mps 726 mmHg 19%
    14:00 +39°C° 0 mm 3 mps 725 mmHg 20%
    15:00 +39°C° 0 mm 3 mps 724 mmHg 20%
    16:00 +38°C° 0 mm 2 mps 724 mmHg 23%
    17:00 +37°C° 0 mm 2 mps 724 mmHg 25%
    18:00 +36°C° 0 mm 2 mps 724 mmHg 28%
    19:00 +34°C° 0 mm 3 mps 724 mmHg 34%
    20:00 +33°C° 0 mm 3 mps 725 mmHg 39%
    21:00 +30°C° 0 mm 4 mps 725 mmHg 45%
    22:00 +29°C° 0 mm 4 mps 725 mmHg 50%
    23:00 +29°C° 0 mm 4 mps 725 mmHg 56%

    Tomorrow, 20 October, Friday

    Time Temperature Precipitation Wind Pressure Humidity
    00:00 +28°C° 0 mm 4 mps 726 mmHg 61%
    01:00 +28°C° 0 mm 4 mps 725 mmHg 61%
    02:00 +28°C° 0 mm 4 mps 725 mmHg 60%
    03:00 +28°C° 0 mm 3 mps 724 mmHg 60%
    04:00 +27°C° 0 mm 3 mps 724 mmHg 61%
    05:00 +27°C° 0 mm 2 mps 724 mmHg 62%
    06:00 +26°C° 0 mm 1 mps 724 mmHg 63%
    07:00 +28°C° 0 mm 2 mps 724 mmHg 58%
    08:00 +30°C° 0 mm 2 mps 725 mmHg 53%
    09:00 +31°C° 0 mm 3 mps 725 mmHg 48%
    10:00 +35°C° 0 mm 4 mps 725 mmHg 39%
    11:00 +37°C° 0 mm 4 mps 725 mmHg 31%
    12:00 +40°C° 0 mm 5 mps 725 mmHg 23%
    13:00 +40°C° 0 mm 4 mps 725 mmHg 22%
    14:00 +41°C° 0 mm 4 mps 724 mmHg 21%
    15:00 +40°C° 0 mm 3 mps 723 mmHg 19%
    16:00 +38°C° 0 mm 3 mps 723 mmHg 22%
    17:00 +37°C° 0 mm 2 mps 723 mmHg 24%
    18:00 +36°C° 0 mm 2 mps 722 mmHg 26%
    19:00 +35°C° 0 mm 2 mps 723 mmHg 27%
    20:00 +34°C° 0 mm 2 mps 723 mmHg 28%
    21:00 +31°C° 0 mm 2 mps 723 mmHg 28%
    22:00 +31°C° 0 mm 2 mps 723 mmHg 29%
    23:00 +30°C° 0 mm 2 mps 723 mmHg 29%

    Day after tomorrow, 21 October, Saturday

    Time Temperature Precipitation Wind Pressure Humidity
    00:00 +30°C° 0 mm 2 mps 723 mmHg 30%
    01:00 +30°C° 0 mm 2 mps 723 mmHg 30%
    02:00 +29°C° 0 mm 2 mps 723 mmHg 31%
    03:00 +29°C° 0 mm 2 mps 722 mmHg 32%
    04:00 +29°C° 0 mm 3 mps 723 mmHg 32%
    05:00 +29°C° 0 mm 3 mps 723 mmHg 31%
    06:00 +30°C° 0 mm 3 mps 724 mmHg 31%
    07:00 +31°C° 0 mm 3 mps 724 mmHg 30%
    08:00 +34°C° 0 mm 4 mps 725 mmHg 28%
    09:00 +35°C° 0 mm 5 mps 726 mmHg 26%
    10:00 +37°C° 0 mm 5 mps 726 mmHg 24%
    11:00 +39°C° 0 mm 5 mps 726 mmHg 23%
    12:00 +41°C° 0 mm 4 mps 725 mmHg 21%
    13:00 +40°C° 0 mm 4 mps 725 mmHg 21%
    14:00 +39°C° 0 mm 3 mps 724 mmHg 22%
    15:00 +38°C° 0 mm 3 mps 724 mmHg 23%
    16:00 +37°C° 0 mm 3 mps 724 mmHg 25%
    17:00 +36°C° 0 mm 3 mps 724 mmHg 27%
    18:00 +35°C° 0 mm 3 mps 724 mmHg 29%
    19:00 +33°C° 0.1 mm 3 mps 724 mmHg 36%
    20:00 +30°C° 0.1 mm 3 mps 725 mmHg 43%
    21:00 +28°C° 0.1 mm 3 mps 725 mmHg 50%
    22:00 +28°C° 0.1 mm 3 mps 725 mmHg 51%
    23:00 +27°C° 0.1 mm 3 mps 724 mmHg 52%

    22 October, Sunday

    Time Temperature Precipitation Wind Pressure Humidity
    00:00 +27°C° 0.1 mm 3 mps 724 mmHg 54%
    01:00 +26°C° 0.5 mm 3 mps 724 mmHg 58%
    02:00 +26°C° 0.5 mm 3 mps 724 mmHg 62%
    03:00 +25°C° 0.5 mm 4 mps 724 mmHg 66%
    04:00 +25°C° 0 mm 3 mps 724 mmHg 68%
    05:00 +25°C° 0 mm 3 mps 724 mmHg 69%
    06:00 +25°C° 0 mm 2 mps 724 mmHg 71%
    07:00 +26°C° 0 mm 2 mps 725 mmHg 65%
    08:00 +28°C° 0 mm 2 mps 726 mmHg 60%
    09:00 +29°C° 0 mm 1 mps 727 mmHg 54%
    10:00 +31°C° 0 mm 2 mps 726 mmHg 49%
    11:00 +32°C° 0 mm 2 mps 726 mmHg 44%
    12:00 +35°C° 0 mm 3 mps 726 mmHg 39%
    13:00 +35°C° 0 mm 3 mps 725 mmHg 38%
    14:00 +35°C° 0 mm 4 mps 725 mmHg 37%
    15:00 +35°C° 0 mm 4 mps 724 mmHg 37%
    16:00 +34°C° 0.1 mm 4 mps 725 mmHg 40%
    17:00 +32°C° 0.1 mm 5 mps 725 mmHg 44%
    18:00 +30°C° 0.1 mm 5 mps 725 mmHg 47%
    19:00 +29°C° 0 mm 4 mps 725 mmHg 52%
    20:00 +28°C° 0 mm 3 mps 726 mmHg 57%
    21:00 +27°C° 0 mm 3 mps 726 mmHg 61%
    22:00 +27°C° 0 mm 2 mps 726 mmHg 64%
    23:00 +26°C° 0 mm 2 mps 726 mmHg 66%

    23 October, Monday

    Time Temperature Precipitation Wind Pressure Humidity
    00:00 +26°C° 0 mm 2 mps 725 mmHg 69%
    01:00 +25°C° 0 mm 1 mps 725 mmHg 70%
    02:00 +25°C° 0 mm 1 mps 725 mmHg 71%
    03:00 +25°C° 0 mm 1 mps 724 mmHg 72%
    04:00 +25°C° 0 mm 1 mps 725 mmHg 73%
    05:00 +23°C° 0 mm 0 mps 725 mmHg 73%
    06:00 +23°C° 0 mm 0 mps 725 mmHg 74%
    07:00 +26°C° 0.1 mm 1 mps 726 mmHg 70%
    08:00 +27°C° 0.1 mm 1 mps 726 mmHg 65%
    09:00 +28°C° 0.1 mm 1 mps 727 mmHg 61%
    10:00 +29°C° 0 mm 1 mps 726 mmHg 55%
    11:00 +31°C° 0 mm 1 mps 726 mmHg 49%
    12:00 +33°C° 0 mm 1 mps 726 mmHg 42%
    13:00 +34°C° 0 mm 1 mps 725 mmHg 40%
    14:00 +35°C° 0 mm 2 mps 725 mmHg 38%
    15:00 +36°C° 0 mm 2 mps 724 mmHg 36%
    16:00 +35°C° 0.1 mm 2 mps 724 mmHg 41%
    17:00 +32°C° 0.1 mm 2 mps 724 mmHg 45%
    18:00 +31°C° 0.1 mm 2 mps 724 mmHg 49%
    19:00 +30°C° 1.4 mm 2 mps 724 mmHg 58%
    20:00 +28°C° 1.4 mm 2 mps 725 mmHg 66%
    21:00 +26°C° 1.4 mm 2 mps 725 mmHg 74%
    22:00 +26°C° 0 mm 2 mps 725 mmHg 76%
    23:00 +26°C° 0 mm 2 mps 725 mmHg 78%

    24 October, Tuesday

    Time Temperature Precipitation Wind Pressure Humidity
    00:00 +25°C° 0 mm 2 mps 725 mmHg 80%
    01:00 +25°C° 0 mm 2 mps 724 mmHg 82%
    02:00 +24°C° 0 mm 2 mps 724 mmHg 83%
    03:00 +24°C° 0 mm 2 mps 724 mmHg 85%
    04:00 +22°C° 0 mm 3 mps 724 mmHg 86%
    05:00 +22°C° 0 mm 3 mps 725 mmHg 86%
    06:00 +22°C° 0 mm 3 mps 725 mmHg 87%
    07:00 +25°C° 0 mm 4 mps 725 mmHg 79%
    08:00 +27°C° 0 mm 4 mps 726 mmHg 71%
    09:00 +28°C° 0 mm 4 mps 727 mmHg 62%
    10:00 +32°C° 0 mm 4 mps 726 mmHg 55%
    11:00 +34°C° 0 mm 4 mps 726 mmHg 47%
    12:00 +36°C° 0 mm 3 mps 726 mmHg 40%
    13:00 +37°C° 0 mm 3 mps 725 mmHg 37%
    14:00 +38°C° 0 mm 2 mps 724 mmHg 34%
    15:00 +39°C° 0 mm 2 mps 724 mmHg 31%
    16:00 +37°C° 0 mm 1 mps 724 mmHg 33%
    17:00 +36°C° 0 mm 1 mps 724 mmHg 36%
    18:00 +35°C° 0 mm 1 mps 724 mmHg 38%
    19:00 +35°C° 0 mm 2 mps 724 mmHg 40%
    20:00 +33°C° 0 mm 3 mps 724 mmHg 43%
    21:00 +32°C° 0 mm 4 mps 724 mmHg 45%
    22:00 +30°C° 0 mm 4 mps 724 mmHg 49%
    23:00 +29°C° 0 mm 5 mps 724 mmHg 53%
    Show more